Вернуться в каталог

STARLINK-5067

АктивенСвязьVLEO
NORAD 55653·PAYLOAD·🇺🇸 United States

Запущен Feb 17, 2023 с Vandenberg Space Force Base

Loading…

Ближайшие Пролёты (ближайшие 24 часа)

TLE

СвежийSource: CelesTrak SupGP

Эпоха: Sep 15, 2026, 01:48 UTC

1 55653C 23021AB  26258.07548611 -.00053864  00000+0 -45146-2 0  2584
2 55653  70.0007  66.7786 0002605 271.3159  90.0493 14.98353545    14

Отслеживайте STARLINK-5067 в реальном времени с AllMySat

Download on the App Store